Kokhanok Airport


Codes: PFKK/KNK
Name: Kokhanok Airport
City: Kokhanok
Country: United States
Elevation: 115 ft.
Wikipedia:

Photos at Kokhanok Airport


   Photos courtesy of SpottingLog. You can add your own sightings and photos by signing up for a free trial today.



No photos found.

Weather at Kokhanok Airport


Time (UTC)DescriptionTempratureWindCloud coverageVisibilityPressureHumidity
16-Jun-2024 12:00Scattered Clouds13°C2 mph, W33%10000m1019hPa73%
16-Jun-2024 15:00Light Rain12°C2 mph, NW44%10000m1019hPa80%
16-Jun-2024 18:00Scattered Clouds13°C2 mph, NW37%10000m1019hPa80%
16-Jun-2024 21:00Light Rain14°C2 mph, N70%10000m1019hPa76%
17-Jun-2024 00:00Light Rain15°C0 mph, NE83%10000m1018hPa72%
17-Jun-2024 03:00Light Rain16°C2 mph, N63%10000m1016hPa70%
17-Jun-2024 06:00Light Rain14°C2 mph, SW42%10000m1017hPa84%
17-Jun-2024 09:00Light Rain12°C2 mph, W32%10000m1017hPa92%
17-Jun-2024 12:00Light Rain10°C0 mph, NE23%10000m1016hPa96%
17-Jun-2024 15:00Scattered Clouds10°C2 mph, NW29%8317m1016hPa96%
17-Jun-2024 18:00Scattered Clouds11°C2 mph, W41%10000m1016hPa85%
17-Jun-2024 21:00Scattered Clouds13°C2 mph, NW41%10000m1015hPa71%
18-Jun-2024 00:00Light Rain14°C2 mph, E31%10000m1014hPa65%
18-Jun-2024 03:00Light Rain15°C4 mph, SE87%10000m1013hPa64%
18-Jun-2024 06:00Broken Clouds13°C9 mph, SE54%10000m1014hPa68%
18-Jun-2024 09:00Broken Clouds11°C7 mph, S80%10000m1015hPa74%
18-Jun-2024 12:00Overcast Clouds9°C4 mph, SE88%10000m1015hPa76%
18-Jun-2024 15:00Overcast Clouds9°C4 mph, SE96%10000m1014hPa80%
18-Jun-2024 18:00Overcast Clouds11°C7 mph, E97%10000m1014hPa72%
18-Jun-2024 21:00Overcast Clouds12°C13 mph, SE88%10000m1014hPa57%
19-Jun-2024 00:00Overcast Clouds12°C16 mph, SE94%10000m1014hPa55%
19-Jun-2024 03:00Overcast Clouds11°C18 mph, E100%10000m1013hPa66%
19-Jun-2024 06:00Overcast Clouds10°C18 mph, E100%10000m1014hPa76%
19-Jun-2024 09:00Overcast Clouds8°C16 mph, E100%10000m1014hPa84%
19-Jun-2024 12:00Overcast Clouds8°C11 mph, E100%10000m1014hPa87%
19-Jun-2024 15:00Light Rain8°C9 mph, E100%10000m1014hPa89%
19-Jun-2024 18:00Overcast Clouds9°C9 mph, E100%10000m1014hPa86%
19-Jun-2024 21:00Overcast Clouds10°C11 mph, SE100%10000m1014hPa75%
20-Jun-2024 00:00Overcast Clouds11°C11 mph, SE100%10000m1014hPa67%
20-Jun-2024 03:00Overcast Clouds11°C11 mph, SE100%10000m1014hPa65%
20-Jun-2024 06:00Overcast Clouds11°C7 mph, SE100%10000m1014hPa71%
20-Jun-2024 09:00Overcast Clouds9°C7 mph, SE100%10000m1014hPa81%
20-Jun-2024 12:00Overcast Clouds8°C2 mph, S99%10000m1014hPa85%
20-Jun-2024 15:00Overcast Clouds8°C2 mph, W100%10000m1014hPa87%
20-Jun-2024 18:00Overcast Clouds9°C2 mph, W100%10000m1014hPa83%
20-Jun-2024 21:00Overcast Clouds11°C4 mph, NW96%9878m1014hPa77%
21-Jun-2024 00:00Overcast Clouds12°C2 mph, NW98%7722m1013hPa71%
21-Jun-2024 03:00Overcast Clouds13°C2 mph, W96%10000m1012hPa65%
21-Jun-2024 06:00Light Rain12°C4 mph, W97%10000m1013hPa74%
21-Jun-2024 09:00Overcast Clouds12°C7 mph, SW98%10000m1013hPa84%